This is the latest recevied weather packets stored in our database for station/object NI4CE-11. If no packets are shown the sender has not sent any weather packets the latest 10 day(s).
| Time | Temp. | Humidity | Pressure | Rain* | Wind** | Luminosity | Snow |
|---|---|---|---|---|---|---|---|
| 1777864196 | 20.56° C | 100% | 1017.4 hPa | 0 mm | - | - | - |
| 1777863896 | 21.67° C | 100% | 1017.4 hPa | 0 mm | - | - | - |
| 1777863596 | 21.67° C | 100% | 1017.5 hPa | 0 mm | - | - | - |
| 1777863296 | 20.56° C | 100% | 1017.5 hPa | 0 mm | - | - | - |
| 1777862996 | 21.11° C | 100% | 1017.4 hPa | 0 mm | - | - | - |
| 1777862772 | 20.56° C | 100% | 1017.2 hPa | 0 mm | - | - | - |
| 1777862696 | 20.56° C | 100% | 1017.3 hPa | 0 mm | - | - | - |
| 1777862397 | 20.56° C | 100% | 1017.4 hPa | 0 mm | - | - | - |
| 1777862096 | 21.67° C | 100% | 1017.5 hPa | 0 mm | - | - | - |
| 1777862022 | 21.11° C | 100% | 1017.3 hPa | 0 mm | - | - | - |
| 1777861797 | 21.11° C | 100% | 1017.3 hPa | 0 mm | - | - | - |
| 1777861651 | 21.11° C | 100% | 1017.2 hPa | 0 mm | - | - | - |
| 1777861496 | 20.56° C | 100% | 1017.2 hPa | 0 mm | - | - | - |
| 1777861197 | 21.11° C | 100% | 1017.2 hPa | 0 mm | - | - | - |
| 1777860896 | 21.11° C | 100% | 1017 hPa | 0 mm | - | - | - |
| 1777860819 | 21.11° C | 100% | 1017.1 hPa | 0 mm | - | - | - |
| 1777860743 | 21.11° C | 100% | 1017.1 hPa | 0 mm | - | - | - |
| 1777860597 | 21.11° C | 100% | 1017.1 hPa | 0 mm | - | - | - |
| 1777860559 | 21.67° C | 100% | 1016.9 hPa | 0 mm | - | - | - |
| 1777860297 | 21.11° C | 100% | 1017 hPa | 0 mm | - | - | - |
| 1777859997 | 21.67° C | 100% | 1016.9 hPa | 0 mm | - | - | - |
| 1777859846 | 21.11° C | 100% | 1016.9 hPa | 0 mm | - | - | - |
| 1777859761 | 21.11° C | 100% | 1016.9 hPa | 0 mm | - | - | - |
| 1777859697 | 21.11° C | 100% | 1016.9 hPa | 0 mm | - | - | - |
| 1777859397 | 21.11° C | 100% | 1016.9 hPa | 0 mm | - | - | - |
* Rain latest hour (hover to see other rain measurements)
** Current wind speed in m/s (hover to see current wind gust speed)